User: anonymous   Login
Location: Sungai Laei
(2.6000°N, 113.7167°E)
Time: 04:28:19
(UTC+00:00)
Language:

COSMOS 1275 DEB - Orbit

View from above orbital plane
View from above orbital plane
View from above satellite
View from above satellite

Ground track
Ground track

The orbit data is extracted from the following two-line orbital elements,

1 42203U 81053TT  23025.96966815  .00001702  00000-0  18039-2 0  9993
2 42203  82.9965  93.0624 0118963 279.5593 254.2341 13.70853786458493
Epoch (UTC): 25 January 2023 23:16:19
Eccentricity: 0.0118963
inclination: 82.9965°
perigee height: 909 km
apogee height: 1084 km
right ascension of ascending node: 93.0624°
argument of perigee: 279.5593°
revolutions per day: 13.70853786
mean anomaly at epoch: 254.2341°
orbit number at epoch: 45849

The dashed part of the orbit path shows where the satellite is in the earth's shadow,  

DLR